Regional Weather Roundup
Issued by NWS Charleston, WV

Home | Current Version | Previous Version | Graphics & Text | Print | Product List | Glossary On
Versions: 1 2 3 4 5 6 7 8 9 10 11 12 13 14 15 16 17 18 19 20 21 22 23 24 25 26 27
000
ASUS41 KRLX 220410
RWRRLX
West Virginia Regional Weather Roundup
National Weather Service Charleston WV
1200 AM EDT SAT APR 22 2017

Note: "fair" indicates few or no clouds below 12,000 feet with no
significant weather and/or obstructions to visibility.

WVZ003-220500-
Northern Panhandle of West Virginia

CITY           SKY/WX    TMP DP  RH WIND       PRES   REMARKS
WHEELING       CLOUDY    50  40  68 N9        30.01R
$$

WVZ009-220500-
Northwest West Virginia

CITY           SKY/WX    TMP DP  RH WIND       PRES   REMARKS
PARKERSBURG    CLOUDY    59  43  55 VRB7      30.00R
$$

WVZ006-220500-
Western West Virginia

CITY           SKY/WX    TMP DP  RH WIND       PRES   REMARKS
HUNTINGTON     RAIN      57  47  69 N7        29.99R
$$

WVZ015-220500-
West Central West Virginia

CITY           SKY/WX    TMP DP  RH WIND       PRES   REMARKS
CHARLESTON     CLOUDY    62  43  49 W3        29.95S
$$

WVZ022-031-220500-
North Central West Virginia

CITY           SKY/WX    TMP DP  RH WIND       PRES   REMARKS
CLARKSBURG     CLOUDY    58  44  60 N9        29.95F
MORGANTOWN     CLOUDY    57  43  59 N8        29.99R
$$

WVZ025-035-042-045-220500-
Southern West Virginia

CITY           SKY/WX    TMP DP  RH WIND       PRES   REMARKS
BECKLEY        LGT RAIN  58  57  97 CALM      29.96F
LOGAN          LGT RAIN  59  59 100 VRB5      29.97R VSB 1/4
BLUEFIELD      CLOUDY    59  55  87 W5        29.98
LEWISBURG      RAIN      59  58  96 CALM      29.96F
$$

WVZ047-220500-
Northern Mountains of West Virginia

CITY           SKY/WX    TMP DP  RH WIND       PRES   REMARKS
ELKINS         CLOUDY    59  46  62 CALM      29.96F
$$

WVZ052-220500-
Eastern Panhandle of West Virginia

CITY           SKY/WX    TMP DP  RH WIND       PRES   REMARKS
MARTINSBURG    CLOUDY    64  44  48 CALM      29.89R
PETERSBURG     CLOUDY    67  44  43 CALM      29.93S
$$




USA.gov is the U.S. government's official web portal to all federal, state and local government web resources and services.